Uvalde, Texas, United States (78801)
Lat: 29.21N, Lon: 99.79W
Wx Zone: TXZ203
Local Info
Past Weather Observations for Today

NOTE: This archive is for the closest National Weather Service station to Uvalde. Information may differ from the station used for current weather conditions.

Click here for Long-term Archive

Time Weather Temperature Dewpoint Humidity Pressure Winds Precip Visibility
19:35
Mostly Cloudy
Thunder Storms
66°F / 19°C 52°F / 11°C 60% 29.86 in
(1011 mb)
SSW 9.2 mph
(SSW 15 kph)
- 10SM
19:15
Mostly Cloudy
68°F / 20°C 48°F / 9°C 49% 29.8 in
(1009 mb)
WNW 10.4 mph
(WNW 17 kph)
- 10SM
18:55
Partly Cloudy
Thunder Storms
68°F / 20°C 50°F / 10°C 53% 29.77 in
(1008 mb)
NNW 13.8 mph
(NNW 22 kph)
- 10SM
18:35
Clear
Thunder Storms
66°F / 19°C 50°F / 10°C 56% 29.77 in
(1008 mb)
NW 20.7 mph
(NW 33 kph)
- 10SM
18:15
Partly Cloudy
63°F / 17°C 52°F / 11°C 68% 29.77 in
(1008 mb)
NW 16.1 mph
(NW 26 kph)
- 10SM
17:55
Partly Cloudy
Thunder Storms
68°F / 20°C 50°F / 10°C 53% 29.8 in
(1009 mb)
NW 23 mph
(NW 37 kph)
- 10SM
17:35
Clear
Thunder Storms
73°F / 23°C 64°F / 18°C 74% 29.8 in
(1009 mb)
W 9.2 mph
(W 15 kph)
- 10SM
17:15
Clear
73°F / 23°C 64°F / 18°C 74% 29.77 in
(1008 mb)
SSW 4.6 mph
(SSW 7 kph)
- 10SM
16:55
Clear
75°F / 24°C 64°F / 18°C 69% 29.77 in
(1008 mb)
SSW 4.6 mph
(SSW 7 kph)
- 10SM
16:35
Clear
75°F / 24°C 64°F / 18°C 69% 29.77 in
(1008 mb)
SW 8.1 mph
(SW 13 kph)
- 10SM
16:15
Clear
75°F / 24°C 63°F / 17°C 65% 29.74 in
(1007 mb)
SSE 11.5 mph
(SSE 19 kph)
- 10SM
15:55
Clear
75°F / 24°C 64°F / 18°C 69% 29.77 in
(1008 mb)
SSE 12.7 mph
(SSE 20 kph)
- 10SM
15:35
Clear
75°F / 24°C 64°F / 18°C 69% 29.77 in
(1008 mb)
SW 9.2 mph
(SW 15 kph)
- 10SM
15:15
Clear
75°F / 24°C 64°F / 18°C 69% 29.77 in
(1008 mb)
S 9.2 mph
(S 15 kph)
- 10SM
14:55
Partly Cloudy
75°F / 24°C 64°F / 18°C 69% 29.77 in
(1008 mb)
SW 9.2 mph
(SW 15 kph)
- 10SM
14:35
Partly Cloudy
75°F / 24°C 66°F / 19°C 74% 29.77 in
(1008 mb)
S 9.2 mph
(S 15 kph)
- 10SM
14:15
Partly Cloudy
75°F / 24°C 66°F / 19°C 74% 29.77 in
(1008 mb)
S 10.4 mph
(S 17 kph)
- 10SM
13:55
Partly Cloudy
75°F / 24°C 66°F / 19°C 74% 29.77 in
(1008 mb)
SW 12.7 mph
(SW 20 kph)
- 10SM
13:35
Partly Cloudy
75°F / 24°C 66°F / 19°C 74% 29.8 in
(1009 mb)
S 12.7 mph
(S 20 kph)
- 10SM
13:15
Mostly Cloudy
73°F / 23°C 66°F / 19°C 78% 29.83 in
(1010 mb)
S 11.5 mph
(S 19 kph)
- 10SM
12:35
Mostly Cloudy
73°F / 23°C 66°F / 19°C 78% 29.83 in
(1010 mb)
S 15 mph
(S 24 kph)
- 10SM
12:15
Mostly Cloudy
73°F / 23°C 66°F / 19°C 78% 29.86 in
(1011 mb)
S 15 mph
(S 24 kph)
- 10SM
11:55
Overcast
73°F / 23°C 68°F / 20°C 83% 29.89 in
(1012 mb)
S 13.8 mph
(S 22 kph)
- 10SM
11:35
Overcast
73°F / 23°C 70°F / 21°C 89% 29.92 in
(1013 mb)
S 15 mph
(S 24 kph)
- 10SM
11:15
Overcast
70°F / 21°C 68°F / 20°C 94% 29.92 in
(1013 mb)
SSE 13.8 mph
(SSE 22 kph)
- 10SM
10:55
Overcast
68°F / 20°C 66°F / 19°C 94% 29.92 in
(1013 mb)
SSE 10.4 mph
(SSE 17 kph)
- 7SM
10:35
Overcast
Drizzle
68°F / 20°C 66°F / 19°C 94% 29.95 in
(1014 mb)
SE 11.5 mph
(SE 19 kph)
- 7SM
10:15
Overcast
Rain
68°F / 20°C 66°F / 19°C 94% 29.95 in
(1014 mb)
SE 13.8 mph
(SE 22 kph)
- 7SM
09:55
Overcast
68°F / 20°C 66°F / 19°C 94% 29.95 in
(1014 mb)
SE 11.5 mph
(SE 19 kph)
- 10SM
09:35
Overcast
68°F / 20°C 66°F / 19°C 94% 29.95 in
(1014 mb)
SE 10.4 mph
(SE 17 kph)
- 7SM
09:15
Overcast
68°F / 20°C 66°F / 19°C 94% 29.95 in
(1014 mb)
SE 10.4 mph
(SE 17 kph)
- 10SM
08:55
Overcast
68°F / 20°C 66°F / 19°C 94% 29.95 in
(1014 mb)
SE 10.4 mph
(SE 17 kph)
- 10SM
08:35
Overcast
68°F / 20°C 66°F / 19°C 94% 29.95 in
(1014 mb)
SE 11.5 mph
(SE 19 kph)
- 10SM
07:55
Overcast
Rain
68°F / 20°C 66°F / 19°C 94% 29.95 in
(1014 mb)
SE 13.8 mph
(SE 22 kph)
- 3SM
07:35
Overcast
68°F / 20°C 66°F / 19°C 94% 29.95 in
(1014 mb)
SE 11.5 mph
(SE 19 kph)
- 7SM
07:15
Overcast
68°F / 20°C 68°F / 20°C 100% 29.95 in
(1014 mb)
SE 10.4 mph
(SE 17 kph)
- 7SM
06:55
Overcast
Light Rain
68°F / 20°C 66°F / 19°C 94% 29.95 in
(1014 mb)
SE 12.7 mph
(SE 20 kph)
- 7SM
06:35
Overcast
68°F / 20°C 66°F / 19°C 94% 29.95 in
(1014 mb)
SE 11.5 mph
(SE 19 kph)
- 10SM
06:15
Overcast
68°F / 20°C 66°F / 19°C 94% 29.95 in
(1014 mb)
SE 12.7 mph
(SE 20 kph)
- 7SM
05:55
Overcast
68°F / 20°C 66°F / 19°C 94% 29.98 in
(1015 mb)
ESE 12.7 mph
(ESE 20 kph)
- 7SM
05:35
Overcast
68°F / 20°C 66°F / 19°C 94% 29.98 in
(1015 mb)
ESE 9.2 mph
(ESE 15 kph)
- 10SM
05:15
Overcast
Drizzle
68°F / 20°C 66°F / 19°C 94% 29.98 in
(1015 mb)
SE 9.2 mph
(SE 15 kph)
- 10SM
04:55
Overcast
68°F / 20°C 66°F / 19°C 94% 29.98 in
(1015 mb)
SE 10.4 mph
(SE 17 kph)
- 10SM
04:35
Overcast
68°F / 20°C 66°F / 19°C 94% 29.98 in
(1015 mb)
SE 10.4 mph
(SE 17 kph)
- 10SM
04:15
Overcast
68°F / 20°C 66°F / 19°C 94% 29.98 in
(1015 mb)
SE 9.2 mph
(SE 15 kph)
- 10SM
03:50
Overcast
68°F / 20°C 66°F / 19°C 94% 29.98 in
(1015 mb)
SE 11.5 mph
(SE 19 kph)
- 10SM
03:35
Overcast
68°F / 20°C 66°F / 19°C 94% 29.98 in
(1015 mb)
SE 10.4 mph
(SE 17 kph)
- 10SM
03:15
Overcast
68°F / 20°C 66°F / 19°C 94% 29.98 in
(1015 mb)
SE 13.8 mph
(SE 22 kph)
- 10SM
02:55
Overcast
68°F / 20°C 66°F / 19°C 94% 29.98 in
(1015 mb)
ESE 10.4 mph
(ESE 17 kph)
- 10SM
02:35
Overcast
68°F / 20°C 66°F / 19°C 94% 29.98 in
(1015 mb)
ESE 9.2 mph
(ESE 15 kph)
- 10SM
02:15
Overcast
68°F / 20°C 66°F / 19°C 94% 29.98 in
(1015 mb)
E 12.7 mph
(E 20 kph)
- 10SM
01:55
Overcast
68°F / 20°C 66°F / 19°C 94% 30.01 in
(1016 mb)
SSE 10.4 mph
(SSE 17 kph)
- 10SM
01:35
Overcast
68°F / 20°C 66°F / 19°C 94% 29.98 in
(1015 mb)
SSE 10.4 mph
(SSE 17 kph)
- 10SM
01:15
Overcast
68°F / 20°C 66°F / 19°C 94% 30.01 in
(1016 mb)
SE 10.4 mph
(SE 17 kph)
- 10SM
00:55
Overcast
68°F / 20°C 66°F / 19°C 94% 30.01 in
(1016 mb)
SE 12.7 mph
(SE 20 kph)
- 10SM
00:40
Mostly Cloudy
68°F / 20°C 66°F / 19°C 94% 30.01 in
(1016 mb)
SE 10.4 mph
(SE 17 kph)
- 10SM
00:15
Overcast
68°F / 20°C 64°F / 18°C 88% 30.01 in
(1016 mb)
SE 15 mph
(SE 24 kph)
- 10SM
Time Weather Temperature Dewpoint Humidity Pressure Winds Precip Visibility


Weather for websites

WeatherForYou.com, LLC is not responsible for any damages or problems caused by this service. Current weather conditions are obtained from the closest station including government and personal stations which may have varying degrees of accuracy. Weather forecasts are derived from the NOAA NDFD. Like all things, this site belongs to Jesus Christ... He just trusts me to maintain it. If you have any questions or comments email webmaster@weatherforyou.com

Copyright © 2014, WeatherForYou.com LLC. All rights reserved.